Regional Weather Roundup
Issued by NWS New Orleans/Baton Rouge, LA

Home | Current Version | Previous Version | Text Only | Print | Product List | Glossary Off
Versions: 1 2 3 4 5 6 7 8 9 10 11 12 13 14 15 16 17 18 19 20 21 22 23 24 25 26 27 28 29 30 31 32 33 34 35 36 37 38 39 40 41 42 43 44 45 46 47 48 49 50

810
ASUS44 KLIX 011005
RWRLIX
NEW ORLEANS REGIONAL WEATHER ROUNDUP
NATIONAL WEATHER SERVICE NEW ORLEANS LA
400 AM CST SUN FEB 01 2015

NOTE: "FAIR" INDICATES FEW OR NO CLOUDS BELOW 12,000 FEET WITH NO
      SIGNIFICANT WEATHER AND/OR OBSTRUCTIONS TO VISIBILITY.
      SKY/WX - SKY CONDITION AND SIGNIFICANT WEATHER.
      TMP - AIR TEMPERATURE.     DP    - DEWPOINT TEMPERATURE.
      RH  - RELATIVE HUMIDITY.   PRES  - PRESSURE.
      HI  - HEAT INDEX.          WCI   - WIND CHILL INDEX.

*  THESE STATIONS ARE NOT NWS OR FAA STATIONS AND ARE NOT UNDER
   NWS QUALITY CONTROL.

LAZ038-040-048-061>063-065>067-069-011100-
SOUTHEAST LOUISIANA

CITY           SKY/WX    TMP DP  RH WIND       PRES   REMARKS
N.O. AUDUBON     N/A     61  56  85 MISG        N/A
N.O. INTL ARPT CLOUDY    61  54  77 SE12      30.02F
N.O. LAKEFRONT CLOUDY    61  54  77 SE12      30.03F
N.O. DOWNTOWN* NOT AVBL
SLIDELL        CLOUDY    60  53  77 SE7       30.03F
BATON ROUGE    CLOUDY    56  51  84 E8        30.00F
BOOTHVILLE     CLOUDY    59  55  87 SE5       30.05F
BELLE CHASSE   CLOUDY    62  54  74 SE9       30.03F
BOGALUSA*        N/A     56  50  79 SE3       30.06F
GALLIANO*      LGT RAIN  65  59  80 MISG      30.02F
NEW ROADS*     CLOUDY    55  52  88 E8        29.98F
GONZALES*      DRIZZLE   59  58  94 SE7G17    30.01F
HAMMOND*       CLOUDY    57  52  82 CALM      30.04F
HOUMA*         CLOUDY    60  58  95 E5        30.01F
PORT FOURCHON* CLOUDY    66  61  82 SE14      30.04F

$$

MSZ070-080>082-011100-
SOUTHERN MISSISSIPPI

CITY           SKY/WX    TMP DP  RH WIND       PRES   REMARKS
MCCOMB         CLOUDY    54  50  86 SE7       30.03F
GULFPORT       MOCLDY    57  54  89 SE12      30.05F
BILOXI         MOCLDY    55  54  94 SE14      30.05F
PASCAGOULA     PTCLDY    50  48  93 E3        30.08F

$$

COASTAL OBSERVATIONS
LAKE AND NEARSHORE STATIONS

STATION/POSITION TIME  TEMP    WIND        PRES    WAVE
                       AIR SEA DIR/SP/G            HT/PER
                 (UTC) (F)     (DEG/KT/KT) (MB)    (FT/S)
PASCAGOULA       1000   60     110/ 10/ 14 1017.8
WAVELAND YACHT   1000   58     140/ 12/ 14 1016.5
GRAND ISLE       1000   65 62  130/ 11/ 15 1017.0
SOUTHWEST PASS   1000   63 49  140/  8/ 10 1017.6
NEW CANAL        1000   61 55  140/  4/  9 1017.0
SHELL BEACH      1000   60 56  120/ 11/ 13 1016.8

OFFSHORE STATIONS

STATION/POSITION TIME  TEMP    WIND        PRES    WAVE
                       AIR SEA DIR/SP/G            HT/PER
                 (UTC) (F)     (DEG/KT/KT) (MB)    (FT/S)
64 S DAUPHIN ISL 0904   68 69  150/ 19/ 23 1018.6    5/ 6

$$




USA.gov is the U.S. government's official web portal to all federal, state and local government web resources and services.